Weather History for Triuchirapalli, India

Change the Weather History Date:

Monday, August 26, 2013

  Actual Average Record
Temperature  
Mean Temperature 89 °F -  
Max Temperature 100 °F 91 °F 100 °F (2002)
Min Temperature 78 °F 78 °F 75 °F (1996)
Cooling Degree Days 24    
Growing Degree Days 39 (Base 50)    
Moisture  
Dew Point 70 °F    
Average Humidity 57    
Maximum Humidity 86    
Minimum Humidity 22    
Precipitation  
Precipitation 0.12 in - - ()
Sea Level Pressure  
Sea Level Pressure 29.70 in    
Wind  
Wind Speed 8 mph ()    
Max Wind Speed 16 mph    
Max Gust Speed -    
Visibility 3.4 miles    
Events Rain , Thunderstorm    
Averages and records for this station are not official NWS values.
T = Trace of Precipitation, MM = Missing Value Source: Averaged Metar Reports

Daily Weather History Graph

Daily Weather History Graph

Search for Another Location

Airport:

Trip Planner

Search our weather history database for the weather conditions in past years. The results will help you decide how hot, cold, wet, or windy it might be!

Date:

Astronomy

Aug. 26, 2013 Rise Set
Actual Time 6:05 AM IST 6:28 PM IST
Civil Twilight 5:44 AM IST 6:49 PM IST
Nautical Twilight 5:19 AM IST 7:14 PM IST
Astronomical Twilight 4:53 AM IST 7:39 PM IST
Moon 10:31 PM IST (8/26) 10:30 AM IST (8/26)
Length of Visible Light 13h 05m
Length of Day
12h 22m
Waning Gibbous, 70% of the Moon is Illuminated
Aug 26
Waning Gibbous
Aug 28
Last Quarter
Sep 5
New
Sep 12
First Quarter
Sep 19
Full

Hourly Weather History & Observations

Time (IST) Temp. Heat Index Dew Point Humidity Pressure Visibility Wind Dir Wind Speed Gust Speed Precip Events Conditions
12:10 AM 86.0 °F 90.4 °F 69.8 °F 58% 29.74 in 3.1 mi West 6.9 mph - N/A   Haze
12:40 AM 84.2 °F 88.4 °F 69.8 °F 62% 29.74 in 3.1 mi West 5.8 mph - N/A   Haze
1:10 AM 84.2 °F 88.4 °F 69.8 °F 62% 29.74 in 3.1 mi WNW 5.8 mph - N/A   Haze
1:40 AM 84.2 °F 88.4 °F 69.8 °F 62% 29.71 in 3.1 mi West 5.8 mph - N/A   Haze
2:10 AM 84.2 °F 88.4 °F 69.8 °F 62% 29.71 in 3.1 mi West 5.8 mph - N/A   Haze
2:40 AM 82.4 °F 86.3 °F 69.8 °F 66% 29.71 in 3.1 mi West 6.9 mph - N/A   Haze
3:10 AM 82.4 °F 86.3 °F 69.8 °F 66% 29.71 in 3.1 mi West 8.1 mph - N/A   Haze
3:40 AM 82.4 °F 86.3 °F 69.8 °F 66% 29.71 in 3.1 mi WNW 11.5 mph - N/A   Haze
4:10 AM 82.4 °F 86.3 °F 69.8 °F 66% 29.71 in 3.1 mi WNW 11.5 mph - N/A   Haze
4:40 AM 80.6 °F 83.9 °F 69.8 °F 70% 29.71 in 3.1 mi WNW 10.4 mph - N/A   Haze
5:10 AM 80.6 °F 83.9 °F 69.8 °F 70% 29.71 in 3.1 mi WNW 8.1 mph - N/A   Haze
5:30 AM 81 °F - 70 °F 61% 29.71 in 2 mi West 9.2 mph - -   Haze
5:40 AM 80.6 °F 83.9 °F 69.8 °F 70% 29.71 in 3.1 mi WNW 10.4 mph - N/A   Haze
6:10 AM 80.6 °F 83.9 °F 69.8 °F 70% 29.71 in 3.1 mi West 11.5 mph - N/A   Haze
6:40 AM 80.6 °F 84.6 °F 71.6 °F 74% 29.71 in 3.1 mi WNW 12.7 mph - N/A   Haze
7:10 AM 82.4 °F 87.2 °F 71.6 °F 70% 29.74 in 3.1 mi West 10.4 mph - N/A   Haze
7:40 AM 82.4 °F 87.2 °F 71.6 °F 70% 29.74 in 3.1 mi WNW 11.5 mph - N/A   Haze
8:10 AM 84.2 °F 89.6 °F 71.6 °F 66% 29.77 in 3.1 mi WNW 12.7 mph - N/A   Haze
8:30 AM 84 °F - 71 °F 56% 29.77 in 2 mi West 11.5 mph - -   Haze
8:40 AM 84.2 °F 89.6 °F 71.6 °F 66% 29.77 in 3.1 mi WNW 11.5 mph - N/A   Haze
9:10 AM 84.2 °F 90.9 °F 73.4 °F 70% 29.77 in 3.1 mi West 11.5 mph - N/A   Haze
9:40 AM 86.0 °F 91.8 °F 71.6 °F 62% 29.77 in 3.1 mi WNW 12.7 mph - N/A   Haze
10:10 AM 87.8 °F 93.8 °F 71.6 °F 58% 29.77 in 3.7 mi NW 11.5 mph - N/A   Scattered Clouds
10:40 AM 89.6 °F 94.7 °F 69.8 °F 52% 29.74 in 3.7 mi NW 11.5 mph - N/A   Scattered Clouds
11:10 AM 91.4 °F 96.8 °F 69.8 °F 49% 29.74 in 3.7 mi NW 10.4 mph - N/A   Scattered Clouds
11:30 AM 92 °F - 70 °F 38% 29.73 in 2 mi WNW 11.5 mph - -   Haze
11:40 AM 91.4 °F 98.4 °F 71.6 °F 52% 29.74 in 3.7 mi WNW 11.5 mph - N/A   Scattered Clouds
12:10 PM 93.2 °F 100.5 °F 71.6 °F 49% 29.71 in 3.7 mi WNW 11.5 mph - N/A   Partly Cloudy
12:40 PM 95.0 °F 101.3 °F 69.8 °F 44% 29.71 in 4.3 mi WNW 10.4 mph - N/A   Partly Cloudy
1:10 PM 96.8 °F 105.1 °F 71.6 °F 44% 29.68 in 4.3 mi NW 12.7 mph - N/A   Partly Cloudy
1:40 PM 98.6 °F 107.7 °F 71.6 °F 42% 29.65 in 4.3 mi NW 12.7 mph - N/A   Partly Cloudy
2:10 PM 98.6 °F 107.7 °F 71.6 °F 42% 29.65 in 5.0 mi NW 9.2 mph - N/A   Scattered Clouds
2:30 PM 100 °F - 67 °F 25% 29.62 in 2 mi NW 11.5 mph - -   Haze
2:40 PM 100.4 °F 104.9 °F 66.2 °F 33% 29.62 in 5.0 mi NW 11.5 mph - N/A   Scattered Clouds
3:10 PM 100.4 °F 104.9 °F 66.2 °F 33% 29.62 in 5.0 mi NW 11.5 mph - N/A   Scattered Clouds
3:40 PM 100.4 °F 106.3 °F 68.0 °F 35% 29.59 in 5.0 mi WNW 6.9 mph - N/A   Scattered Clouds
4:10 PM 98.6 °F 104.1 °F 68.0 °F 37% 29.59 in 5.0 mi NNW 6.9 mph - N/A   Scattered Clouds
4:40 PM 98.6 °F 104.1 °F 68.0 °F 37% 29.59 in 5.0 mi NNW 6.9 mph - N/A   Scattered Clouds
5:10 PM 98.6 °F 104.1 °F 68.0 °F 37% 29.59 in 5.0 mi North 9.2 mph - N/A   Scattered Clouds
5:30 PM 98 °F - 63 °F 22% 29.60 in 2 mi NNW 4.6 mph - -   Haze
5:40 PM 98.6 °F 100.0 °F 62.6 °F 30% 29.59 in 5.0 mi NNW 4.6 mph - N/A   Scattered Clouds
6:10 PM 96.8 °F 100.7 °F 66.2 °F 37% 29.62 in 5.0 mi NW 3.5 mph - N/A   Partly Cloudy
6:40 PM 95.0 °F 98.5 °F 66.2 °F 39% 29.62 in 5.0 mi NW 3.5 mph - N/A   Partly Cloudy
7:10 PM 95.0 °F 99.5 °F 68.0 °F 41% 29.65 in 3.7 mi SSW 9.2 mph - N/A   Partly Cloudy
7:40 PM 86.0 °F 93.4 °F 73.4 °F 66% 29.71 in 3.7 mi West 16.1 mph - N/A   Light Drizzle
8:30 PM 78 °F - 74 °F 86% 29.74 in 1 mi SW 9.2 mph - - Rain , Thunderstorm Thunderstorms and Rain
8:40 PM 78.8 °F - 73.4 °F 83% 29.74 in 1.9 mi SW 11.5 mph - N/A Rain , Thunderstorm Thunderstorms and Rain
10:10 PM 82.4 °F 89.5 °F 75.2 °F 79% 29.77 in 3.1 mi SE 3.5 mph - N/A   Haze
10:40 PM 82.4 °F 89.5 °F 75.2 °F 79% 29.77 in 3.1 mi SSE 2.3 mph - N/A   Haze
11:10 PM 82.4 °F 89.5 °F 75.2 °F 79% 29.77 in 3.1 mi Variable 2.3 mph - N/A   Haze
11:30 PM 81 °F - 76 °F 82% 29.76 in 1 mi 2.3 mph - -   Partly Cloudy
11:40 PM 80.6 °F 86.2 °F 75.2 °F 84% 29.77 in 3.1 mi Variable 3.5 mph - N/A   Haze